Date String (YYYY-MM-DD hh:mm:ss) UTC,Instrument flags,absolute air pressure of the measurement (hPa),sample flow rate (lpm),inlet stack bypass flow (lpm),air temperature of the measurement (°C),ambient temperature measured by the external sensor (°C),aerosol sample conditioner tube jacket temperature (°C),OPC LED temperature (°C),internal box temperature (°C),relative humidity of the measurement (%),span deviation,mass concentration of particles derived from Lorenz-Mie calculation of OPC scattering (μg/m³),mass concentration of particles derived from Lorenz-Mie calculation of OPC scattering (μg/m³),mass concentration of particles derived from Lorenz-Mie calculation of OPC scattering (μg/m³)
DateTimeUTC,F1_M11,P_M11,Q1_M11,Q2_M11,T1_M11,T2_M11,T3_M11,T4_M11,T5_M11,U1_M11,ZSPAN_M11,X0_M11,X2_M11,X1_M11
2024-03-26 05:00:00,SystemResetWarning,0820.2,5.00,000.00,018.6,017.8,000.0,027.2,020.2,14.8,0000.0,0010.76,0008.10,0007.89
2024-03-26 05:01:00,SystemResetWarning,0820.2,5.00,000.00,018.5,017.7,000.0,027.2,020.1,14.8,0000.0,0010.36,0008.11,0007.91
2024-03-26 05:02:00,SystemResetWarning,0820.1,5.00,000.00,018.5,017.6,000.0,027.2,020.1,14.8,0000.0,0010.35,0008.13,0007.93
2024-03-26 05:03:00,SystemResetWarning,0820.1,4.99,000.00,018.4,017.5,000.0,027.1,020.0,14.9,0000.0,0010.43,0008.15,0007.94
2024-03-26 05:04:00,SystemResetWarning,0820.3,4.99,000.00,018.4,017.4,000.0,027.1,020.0,15.0,0000.0,0010.34,0008.17,0007.96
2024-03-26 05:05:00,SystemResetWarning,0820.0,4.99,000.00,018.3,017.3,000.0,027.1,020.0,15.0,0000.0,0010.13,0008.19,0007.98
2024-03-26 05:06:00,SystemResetWarning,0820.3,5.01,000.00,018.3,017.2,000.0,027.1,020.0,15.0,0000.0,0010.09,0008.21,0007.99
2024-03-26 05:07:00,SystemResetWarning,0820.1,5.01,000.00,018.3,017.2,000.0,027.1,020.0,15.0,0000.0,0010.13,0008.23,0008.00
2024-03-26 05:08:00,SystemResetWarning,0820.2,5.00,000.00,018.3,017.1,000.0,027.1,020.0,15.0,0000.0,0010.12,0008.23,0008.02
2024-03-26 05:09:00,SystemResetWarning,0820.0,4.99,000.00,018.2,017.1,000.0,027.1,020.0,15.0,0000.0,0010.31,0008.27,0008.05
2024-03-26 05:10:00,SystemResetWarning,0820.0,4.99,000.00,018.3,017.8,000.0,027.2,020.4,15.0,0000.0,0010.37,0008.31,0008.07
2024-03-26 05:11:00,SystemResetWarning,0820.1,5.01,000.00,018.6,018.7,000.0,027.3,020.9,14.8,0000.0,0010.45,0008.32,0008.08
2024-03-26 05:12:00,SystemResetWarning,0820.2,5.00,000.00,018.8,019.0,000.0,027.2,021.0,14.6,0000.0,0010.55,0008.33,0008.08
2024-03-26 05:13:00,SystemResetWarning,0820.0,4.99,000.00,018.8,018.8,000.0,027.2,020.8,14.6,0000.0,0010.72,0008.37,0008.09
2024-03-26 05:14:00,SystemResetWarning,0819.7,5.00,000.00,018.8,018.6,000.0,027.2,020.7,14.6,0000.1,0011.24,0008.36,0008.11
2024-03-26 05:15:00,SystemResetWarning,0820.0,5.00,000.00,018.7,018.4,000.0,027.2,020.6,14.6,0000.6,0011.18,0008.34,0008.10
2024-03-26 05:16:00,SystemResetWarning,0819.8,5.00,000.00,018.7,018.2,000.0,027.2,020.5,14.7,0000.4,0011.05,0008.35,0008.10
2024-03-26 05:17:00,SystemResetWarning,0819.9,5.00,000.00,018.7,018.0,000.0,027.2,020.4,14.7,0000.7,0011.10,0008.35,0008.10
2024-03-26 05:18:00,SystemResetWarning,0820.1,4.99,000.00,018.6,017.9,000.0,027.2,020.3,14.8,0000.6,0011.15,0008.36,0008.10
2024-03-26 05:19:00,SystemResetWarning,0820.2,5.01,000.00,018.6,017.8,000.0,027.2,020.3,14.8,0000.7,0011.25,0008.36,0008.09
2024-03-26 05:20:00,SystemResetWarning,0819.9,5.00,000.00,018.5,017.7,000.0,027.2,020.2,14.8,0000.7,0011.13,0008.36,0008.09
2024-03-26 05:21:00,SystemResetWarning,0819.8,4.99,000.00,018.5,017.6,000.0,027.2,020.2,14.9,0001.0,0011.90,0008.36,0008.10
2024-03-26 05:22:00,SystemResetWarning,0819.9,4.99,000.00,018.5,017.6,000.0,027.1,020.2,14.9,0001.0,0012.22,0008.37,0008.10
2024-03-26 05:23:00,SystemResetWarning,0819.8,5.01,000.00,018.4,017.5,000.0,027.1,020.1,15.0,0001.0,0012.14,0008.38,0008.11
2024-03-26 05:24:00,SystemResetWarning,0819.8,5.00,000.00,018.4,017.5,000.0,027.1,020.1,15.0,0001.1,0011.99,0008.34,0008.10
2024-03-26 05:25:00,SystemResetWarning,0819.8,5.01,000.00,018.4,017.4,000.0,027.1,020.1,15.2,0001.4,0011.52,0008.32,0008.08
2024-03-26 05:26:00,SystemResetWarning,0819.8,5.00,000.00,018.3,017.4,000.0,027.1,020.0,15.6,0001.4,0011.49,0008.34,0008.09
2024-03-26 05:27:00,SystemResetWarning,0819.8,5.00,000.00,018.3,017.3,000.0,027.1,020.0,15.7,0001.2,0011.73,0008.36,0008.10
2024-03-26 05:28:00,SystemResetWarning,0819.7,4.98,000.00,018.3,017.3,000.0,027.1,020.0,15.6,0000.0,0011.64,0008.37,0008.10
2024-03-26 05:29:00,SystemResetWarning,0819.8,5.00,000.00,018.3,017.3,000.0,027.1,020.0,15.6,0000.0,0011.56,0008.34,0008.10
2024-03-26 05:30:00,SystemResetWarning,0819.8,5.01,000.00,018.3,017.6,000.0,027.1,020.2,15.7,0000.6,0011.47,0008.35,0008.11
2024-03-26 05:31:00,SystemResetWarning,0819.8,5.00,000.00,018.5,018.6,000.0,027.2,020.8,15.7,0001.4,0011.58,0008.37,0008.12
2024-03-26 05:32:00,SystemResetWarning,0819.8,4.99,000.00,018.7,019.0,000.0,027.2,021.1,15.5,0000.0,0011.24,0008.36,0008.12
2024-03-26 05:33:00,SystemResetWarning,0819.8,4.99,000.00,018.8,018.9,000.0,027.2,020.9,15.5,0000.0,0010.89,0008.35,0008.11
2024-03-26 05:34:00,SystemResetWarning,0819.8,5.00,000.00,018.8,018.7,000.0,027.2,020.8,15.5,0000.0,0011.18,0008.33,0008.08
2024-03-26 05:35:00,SystemResetWarning,0819.8,5.00,000.00,018.7,018.5,000.0,027.2,020.6,15.6,0000.0,0011.16,0008.34,0008.09
2024-03-26 05:36:00,SystemResetWarning,0819.8,5.00,000.00,018.7,018.3,000.0,027.2,020.5,15.7,0000.0,0011.31,0008.37,0008.10
2024-03-26 05:37:00,SystemResetWarning,0819.7,5.00,000.00,018.7,018.1,000.0,027.2,020.5,15.7,0000.2,0011.45,0008.39,0008.10
2024-03-26 05:38:00,SystemResetWarning,0819.8,5.00,000.00,018.7,018.0,000.0,027.2,020.4,15.8,0001.5,0011.25,0008.40,0008.10
2024-03-26 05:39:00,SystemResetWarning,0819.7,5.00,000.00,018.6,017.9,000.0,027.2,020.3,15.9,0001.8,0011.54,0008.38,0008.10
2024-03-26 05:40:00,SystemResetWarning,0819.8,5.00,000.00,018.6,017.8,000.0,027.2,020.3,16.0,0001.7,0011.50,0008.38,0008.10
2024-03-26 05:41:00,SystemResetWarning,0819.8,5.00,000.00,018.5,017.7,000.0,027.2,020.2,16.0,0001.5,0011.54,0008.39,0008.11
2024-03-26 05:42:00,SystemResetWarning,0819.8,5.00,000.00,018.5,017.6,000.0,027.2,020.2,16.0,0001.4,0011.48,0008.40,0008.10
2024-03-26 05:43:00,SystemResetWarning,0819.8,5.01,000.00,018.5,017.6,000.0,027.1,020.2,16.0,0001.3,0011.06,0008.40,0008.10
2024-03-26 05:44:00,SystemResetWarning,0819.8,5.01,000.00,018.4,017.5,000.0,027.1,020.1,16.1,0002.2,0011.09,0008.39,0008.10
2024-03-26 05:45:00,SystemResetWarning,0819.8,5.00,000.00,018.4,017.4,000.0,027.1,020.1,16.1,0001.6,0011.07,0008.44,0008.13
2024-03-26 05:46:00,SystemResetWarning,0819.8,4.99,000.00,018.4,017.5,000.0,027.1,020.1,16.2,0001.0,0011.58,0008.42,0008.13
2024-03-26 05:47:00,SystemResetWarning,0820.2,5.00,000.00,018.5,018.1,000.0,027.2,020.5,16.1,0002.5,0012.52,0008.43,0008.14
2024-03-26 05:48:00,SystemResetWarning,0820.4,5.00,000.00,018.7,019.0,000.0,027.3,021.0,15.9,0002.4,0012.48,0008.43,0008.14
2024-03-26 05:49:00,SystemResetWarning,0819.8,4.99,000.00,018.9,019.0,000.0,027.3,021.1,15.7,0000.4,0012.47,0008.42,0008.13
2024-03-26 05:50:00,SystemResetWarning,0819.8,5.00,000.00,018.9,018.8,000.0,027.3,020.9,15.7,0000.0,0012.28,0008.42,0008.14
2024-03-26 05:51:00,SystemResetWarning,0819.8,5.01,000.00,018.8,018.6,000.0,027.3,020.8,15.7,0000.0,0012.42,0008.44,0008.15
2024-03-26 05:52:00,SystemResetWarning,0819.7,5.00,000.00,018.8,018.4,000.0,027.3,020.6,15.8,0000.1,0012.98,0008.46,0008.15
2024-03-26 05:53:00,SystemResetWarning,0819.7,4.99,000.00,018.8,018.2,000.0,027.3,020.5,15.7,0003.0,0012.92,0008.42,0008.14
2024-03-26 05:54:00,SystemResetWarning,0819.8,5.01,000.00,018.7,018.1,000.0,027.3,020.5,15.6,0002.8,0013.38,0008.36,0008.10
2024-03-26 05:55:00,SystemResetWarning,0819.7,5.00,000.00,018.7,017.9,000.0,027.2,020.4,15.6,0000.0,0013.34,0008.35,0008.09
2024-03-26 05:56:00,SystemResetWarning,0819.8,5.00,000.00,018.6,017.8,000.0,027.2,020.3,15.5,0000.5,0013.25,0008.33,0008.08
2024-03-26 05:57:00,SystemResetWarning,0819.8,4.99,000.00,018.6,017.7,000.0,027.2,020.3,15.4,0002.8,0012.82,0008.31,0008.06
2024-03-26 05:58:00,SystemResetWarning,0819.8,5.00,000.00,018.6,017.6,000.0,027.2,020.2,15.4,0001.4,0011.83,0008.26,0008.01
2024-03-26 05:59:00,SystemResetWarning,0820.0,5.00,000.00,018.5,017.6,000.0,027.2,020.2,15.3,0000.0,0011.44,0008.21,0007.96
